Wetterdaten: Donnerstag, 07.08.2014
Datum Zeit Temp. A. Mod.Schuppen Waschkche Feuchte A. Luftdruck Regen Wind Richtung Richtung Sonnenschein Helligkeit Solar
07.08.2014 00:04 17,5 C 16,6 C 22,7 C 89 % 1013,9 hPa 0,0 l/m 0,0 km/h (0 Bft) S-SO 160 0 min 0 lux 0 W/m
07.08.2014 00:10 17,6 C 16,6 C 22,7 C 89 % 1013,9 hPa 0,0 l/m 0,3 km/h (0 Bft) S-SO 160 0 min 0 lux 0 W/m
07.08.2014 00:14 17,6 C 16,6 C 22,7 C 89 % 1013,9 hPa 0,0 l/m 0,6 km/h (0 Bft) S-SO 160 0 min 0 lux 0 W/m
07.08.2014 00:19 17,4 C 16,5 C 22,7 C 88 % 1013,9 hPa 0,0 l/m 6,9 km/h (2 Bft) S-SO45 165 0 min 0 lux 0 W/m
07.08.2014 00:24 17,4 C 16,5 C 22,7 C 88 % 1013,9 hPa 0,0 l/m 12,3 km/h (2 Bft) S22.5 170 0 min 0 lux 0 W/m
07.08.2014 00:29 17,4 C 16,4 C 22,7 C 88 % 1013,9 hPa 0,0 l/m 12,3 km/h (2 Bft) S22.5 170 0 min 0 lux 0 W/m
07.08.2014 00:34 17,3 C 16,2 C 22,7 C 88 % 1013,9 hPa 0,0 l/m 10,3 km/h (2 Bft) S45 180 0 min 0 lux 0 W/m
07.08.2014 00:40 17,2 C 16,1 C 22,7 C 88 % 1013,9 hPa 0,0 l/m 10,9 km/h (2 Bft) S22.5 170 0 min 0 lux 0 W/m
07.08.2014 00:44 17,2 C 16,0 C 22,7 C 87 % 1013,9 hPa 0,0 l/m 9,3 km/h (2 Bft) S22.5 170 0 min 0 lux 0 W/m
07.08.2014 00:49 17,2 C 16,0 C 22,6 C 87 % 1013,9 hPa 0,0 l/m 12,8 km/h (3 Bft) S22.5 170 0 min 0 lux 0 W/m
07.08.2014 00:54 17,1 C 16,0 C 22,6 C 87 % 1013,9 hPa 0,0 l/m 12,8 km/h (3 Bft) S22.5 170 0 min 0 lux 0 W/m
07.08.2014 01:00 17,1 C 15,9 C 22,6 C 87 % 1013,9 hPa 0,0 l/m 11,8 km/h (2 Bft) S45 170 0 min 0 lux 0 W/m
07.08.2014 01:04 17,1 C 16,0 C 22,6 C 87 % 1013,9 hPa 0,0 l/m 13,0 km/h (3 Bft) S22.5 175 0 min 0 lux 0 W/m
07.08.2014 01:09 17,0 C 16,0 C 22,6 C 86 % 1013,9 hPa 0,0 l/m 10,0 km/h (2 Bft) S45 180 0 min 0 lux 0 W/m
07.08.2014 01:14 17,0 C 16,0 C 22,5 C 86 % 1013,9 hPa 0,0 l/m 11,8 km/h (2 Bft) S45 185 0 min 0 lux 0 W/m
07.08.2014 01:19 17,0 C 15,8 C 22,5 C 86 % 1013,9 hPa 0,0 l/m 14,2 km/h (3 Bft) S22.5 180 0 min 0 lux 0 W/m
07.08.2014 01:24 16,9 C 15,8 C 22,5 C 86 % 1013,9 hPa 0,0 l/m 14,7 km/h (3 Bft) S45 180 0 min 0 lux 0 W/m
07.08.2014 01:30 16,8 C 15,8 C 22,5 C 86 % 1013,9 hPa 0,0 l/m 14,9 km/h (3 Bft) S22.5 190 0 min 0 lux 0 W/m
07.08.2014 01:35 16,8 C 15,8 C 22,5 C 87 % 1013,9 hPa 0,0 l/m 13,8 km/h (3 Bft) S-SW22.5 205 0 min 0 lux 0 W/m
07.08.2014 01:39 16,8 C 15,7 C 22,5 C 87 % 1013,9 hPa 0,0 l/m 12,6 km/h (3 Bft) S22.5 180 0 min 0 lux 0 W/m
07.08.2014 01:44 16,5 C 15,7 C 22,4 C 87 % 1013,9 hPa 0,0 l/m 10,3 km/h (2 Bft) S45 175 0 min 0 lux 0 W/m
07.08.2014 01:49 16,4 C 15,7 C 22,4 C 87 % 1013,9 hPa 0,4 l/m 8,8 km/h (2 Bft) S-SO45 160 0 min 0 lux 0 W/m
07.08.2014 01:54 16,3 C 15,7 C 22,4 C 88 % 1013,9 hPa 0,0 l/m 14,1 km/h (3 Bft) S22.5 175 0 min 0 lux 0 W/m
07.08.2014 01:59 16,3 C 15,6 C 22,3 C 88 % 1012,9 hPa 0,0 l/m 12,1 km/h (2 Bft) S22.5 180 0 min 0 lux 0 W/m
07.08.2014 02:05 16,2 C 15,6 C 22,3 C 88 % 1012,9 hPa 0,0 l/m 7,9 km/h (2 Bft) S22.5 170 0 min 0 lux 0 W/m
07.08.2014 02:09 16,2 C 15,6 C 22,3 C 89 % 1012,9 hPa 0,0 l/m 10,0 km/h (2 Bft) S-SO22.5 160 0 min 0 lux 0 W/m
07.08.2014 02:14 16,2 C 15,7 C 22,3 C 89 % 1012,9 hPa 0,0 l/m 1,3 km/h (1 Bft) S-SO22.5 160 0 min 0 lux 0 W/m
07.08.2014 02:19 16,2 C 15,7 C 22,3 C 89 % 1012,9 hPa 0,0 l/m 6,1 km/h (2 Bft) S-SO45 155 0 min 0 lux 0 W/m
07.08.2014 02:24 16,2 C 15,7 C 22,3 C 90 % 1012,9 hPa 0,0 l/m 9,4 km/h (2 Bft) S-SO22.5 160 0 min 0 lux 0 W/m
07.08.2014 02:29 16,2 C 15,7 C 22,3 C 90 % 1012,9 hPa 0,0 l/m 9,5 km/h (2 Bft) S-SO22.5 165 0 min 0 lux 0 W/m
07.08.2014 02:35 16,2 C 15,7 C 22,3 C 90 % 1012,9 hPa 0,0 l/m 11,3 km/h (2 Bft) S-SO22.5 160 0 min 0 lux 0 W/m
07.08.2014 02:40 16,2 C 15,7 C 22,2 C 90 % 1012,9 hPa 0,0 l/m 9,4 km/h (2 Bft) S22.5 170 0 min 0 lux 0 W/m
07.08.2014 02:45 16,2 C 15,7 C 22,2 C 90 % 1012,9 hPa 0,0 l/m 11,1 km/h (2 Bft) S-SO67.5 150 0 min 0 lux 0 W/m
07.08.2014 02:49 16,3 C 15,8 C 22,2 C 90 % 1012,9 hPa 0,0 l/m 6,1 km/h (2 Bft) S-SO45 160 0 min 0 lux 0 W/m
07.08.2014 02:54 16,3 C 15,8 C 22,2 C 90 % 1012,9 hPa 0,0 l/m 1,6 km/h (1 Bft) SO45 140 0 min 0 lux 0 W/m
07.08.2014 02:59 16,3 C 15,8 C 22,2 C 90 % 1012,9 hPa 0,0 l/m 10,7 km/h (2 Bft) S-SO45 150 0 min 0 lux 0 W/m
07.08.2014 03:05 16,3 C 15,8 C 22,2 C 90 % 1012,9 hPa 0,0 l/m 7,0 km/h (2 Bft) SO45 140 0 min 0 lux 0 W/m
07.08.2014 03:10 16,3 C 15,8 C 22,2 C 90 % 1012,9 hPa 0,0 l/m 7,8 km/h (2 Bft) SO45 145 0 min 0 lux 0 W/m
07.08.2014 03:14 16,3 C 15,8 C 22,2 C 90 % 1012,9 hPa 0,0 l/m 10,7 km/h (2 Bft) S-SO45 160 0 min 0 lux 0 W/m
07.08.2014 03:19 16,2 C 15,8 C 22,2 C 90 % 1012,9 hPa 0,0 l/m 11,8 km/h (2 Bft) S-SO22.5 165 0 min 0 lux 0 W/m
07.08.2014 03:24 16,2 C 15,7 C 22,2 C 90 % 1012,9 hPa 0,0 l/m 9,2 km/h (2 Bft) S-SO22.5 150 0 min 0 lux 0 W/m
07.08.2014 03:29 16,2 C 15,8 C 22,2 C 90 % 1012,9 hPa 0,0 l/m 8,8 km/h (2 Bft) SO22.5 145 0 min 0 lux 0 W/m
07.08.2014 03:35 16,3 C 15,8 C 22,1 C 90 % 1012,9 hPa 0,0 l/m 7,9 km/h (2 Bft) SO45 145 0 min 0 lux 0 W/m
07.08.2014 03:40 16,3 C 15,8 C 22,1 C 90 % 1012,9 hPa 0,0 l/m 8,4 km/h (2 Bft) S-SO22.5 160 0 min 0 lux 0 W/m
07.08.2014 03:45 16,3 C 15,8 C 22,1 C 90 % 1012,9 hPa 0,0 l/m 7,4 km/h (2 Bft) S-SO22.5 155 0 min 0 lux 0 W/m
07.08.2014 03:49 16,4 C 15,8 C 22,1 C 90 % 1012,9 hPa 0,0 l/m 3,6 km/h (1 Bft) S-SO22.5 150 0 min 0 lux 0 W/m
07.08.2014 03:54 16,4 C 15,9 C 22,1 C 90 % 1012,9 hPa 0,0 l/m 2,4 km/h (1 Bft) S-SO22.5 160 0 min 0 lux 0 W/m
07.08.2014 03:59 16,4 C 15,9 C 22,1 C 90 % 1012,9 hPa 0,0 l/m 2,4 km/h (1 Bft) S-SO22.5 160 0 min 0 lux 0 W/m
07.08.2014 04:05 16,4 C 15,9 C 22,1 C 90 % 1012,9 hPa 0,0 l/m 0,3 km/h (0 Bft) S-SO 155 0 min 0 lux 0 W/m
07.08.2014 04:10 16,5 C 15,9 C 22,1 C 90 % 1012,9 hPa 0,0 l/m 0,3 km/h (0 Bft) S-SO 150 0 min 0 lux 0 W/m
07.08.2014 04:15 16,5 C 15,9 C 22,1 C 90 % 1012,9 hPa 0,0 l/m 3,3 km/h (1 Bft) S-SW22.5 195 0 min 0 lux 0 W/m
07.08.2014 04:19 16,5 C 16,0 C 22,1 C 90 % 1012,9 hPa 0,0 l/m 5,7 km/h (2 Bft) S22.5 180 0 min 0 lux 0 W/m
07.08.2014 04:24 16,6 C 16,0 C 22,1 C 90 % 1012,9 hPa 0,0 l/m 5,6 km/h (2 Bft) S-SW22.5 200 0 min 0 lux 0 W/m
07.08.2014 04:29 16,6 C 15,9 C 22,1 C 90 % 1012,9 hPa 0,0 l/m 9,1 km/h (2 Bft) S22.5 185 0 min 0 lux 0 W/m
07.08.2014 04:34 16,6 C 15,9 C 22,0 C 90 % 1012,9 hPa 0,0 l/m 7,8 km/h (2 Bft) S22.5 190 0 min 0 lux 0 W/m
07.08.2014 04:40 16,6 C 15,9 C 22,0 C 90 % 1012,9 hPa 0,0 l/m 0,4 km/h (0 Bft) S 180 0 min 0 lux 0 W/m
07.08.2014 04:45 16,6 C 15,9 C 22,0 C 90 % 1012,9 hPa 0,0 l/m 4,5 km/h (1 Bft) S-SW22.5 195 0 min 0 lux 0 W/m
07.08.2014 04:50 16,6 C 15,9 C 22,0 C 90 % 1012,9 hPa 0,0 l/m 4,0 km/h (1 Bft) S-SW 195 0 min 0 lux 0 W/m
07.08.2014 04:54 16,6 C 15,9 C 22,0 C 90 % 1012,9 hPa 0,0 l/m 0,4 km/h (0 Bft) S-SW 195 0 min 0 lux 0 W/m
07.08.2014 04:59 16,6 C 15,9 C 22,0 C 90 % 1012,9 hPa 0,0 l/m 1,3 km/h (1 Bft) S22.5 180 0 min 0 lux 0 W/m
07.08.2014 05:04 16,6 C 15,9 C 22,0 C 90 % 1012,9 hPa 0,0 l/m 6,3 km/h (2 Bft) S-SO 160 0 min 0 lux 0 W/m
07.08.2014 05:10 16,6 C 15,9 C 22,0 C 90 % 1012,9 hPa 0,0 l/m 7,0 km/h (2 Bft) S-SO 160 0 min 0 lux 0 W/m
07.08.2014 05:15 16,7 C 16,0 C 22,0 C 90 % 1012,9 hPa 0,0 l/m 5,7 km/h (2 Bft) S22.5 190 0 min 0 lux 0 W/m
07.08.2014 05:20 16,7 C 16,0 C 22,0 C 90 % 1012,9 hPa 0,0 l/m 7,6 km/h (2 Bft) S-SW 210 0 min 0 lux 0 W/m
07.08.2014 05:24 16,7 C 16,0 C 22,0 C 90 % 1012,9 hPa 0,0 l/m 5,7 km/h (2 Bft) S22.5 190 0 min 0 lux 0 W/m
07.08.2014 05:29 16,6 C 15,9 C 22,0 C 90 % 1012,9 hPa 0,0 l/m 7,5 km/h (2 Bft) S 175 0 min 0 lux 0 W/m
07.08.2014 05:34 16,6 C 15,8 C 22,0 C 90 % 1012,9 hPa 0,0 l/m 6,7 km/h (2 Bft) S-SO 165 0 min 0 lux 0 W/m
07.08.2014 05:39 16,6 C 15,8 C 22,0 C 90 % 1012,9 hPa 0,0 l/m 7,1 km/h (2 Bft) S22.5 170 0 min 0 lux 0 W/m
07.08.2014 05:45 16,6 C 15,7 C 21,9 C 90 % 1012,9 hPa 0,0 l/m 10,3 km/h (2 Bft) S22.5 180 0 min 0 lux 0 W/m
07.08.2014 05:50 16,6 C 15,5 C 22,0 C 90 % 1012,9 hPa 0,0 l/m 6,1 km/h (2 Bft) S22.5 175 0 min 39 lux 0 W/m
07.08.2014 05:55 16,6 C 15,4 C 22,0 C 90 % 1012,9 hPa 0,0 l/m 7,8 km/h (2 Bft) S22.5 185 0 min 85 lux 0 W/m
07.08.2014 05:59 16,6 C 15,3 C 21,9 C 90 % 1012,9 hPa 0,0 l/m 10,2 km/h (2 Bft) S22.5 190 0 min 142 lux 0 W/m
07.08.2014 06:04 16,6 C 15,4 C 21,9 C 90 % 1012,9 hPa 0,0 l/m 9,7 km/h (2 Bft) S-SW22.5 195 0 min 202 lux 0 W/m
07.08.2014 06:09 16,6 C 15,5 C 21,9 C 90 % 1012,9 hPa 0,0 l/m 6,7 km/h (2 Bft) S-SW22.5 200 0 min 538 lux 0 W/m
07.08.2014 06:15 16,6 C 15,5 C 21,9 C 90 % 1012,9 hPa 0,0 l/m 5,3 km/h (1 Bft) S 190 0 min 697 lux 5 W/m
07.08.2014 06:20 16,7 C 15,4 C 21,9 C 90 % 1012,9 hPa 0,0 l/m 3,8 km/h (1 Bft) S 190 0 min 855 lux 6 W/m
07.08.2014 06:24 16,7 C 15,7 C 21,9 C 90 % 1012,9 hPa 0,0 l/m 0,2 km/h (0 Bft) S-SW22.5 195 0 min 840 lux 6 W/m
07.08.2014 06:29 16,7 C 15,9 C 21,9 C 90 % 1012,9 hPa 0,0 l/m 10,1 km/h (2 Bft) SW22.5 230 0 min 962 lux 7 W/m
07.08.2014 06:34 16,8 C 16,1 C 21,9 C 90 % 1012,9 hPa 0,0 l/m 7,9 km/h (2 Bft) W-SW22.5 245 0 min 1,03 klux 7 W/m
07.08.2014 06:39 16,8 C 16,3 C 21,9 C 90 % 1012,9 hPa 0,0 l/m 8,4 km/h (2 Bft) SW 235 0 min 1,14 klux 8 W/m
07.08.2014 06:44 16,8 C 16,3 C 21,9 C 91 % 1012,9 hPa 0,0 l/m 10,7 km/h (2 Bft) SW22.5 225 0 min 1,33 klux 9 W/m
07.08.2014 06:50 16,8 C 16,5 C 21,9 C 91 % 1012,9 hPa 0,0 l/m 8,4 km/h (2 Bft) SW22.5 235 0 min 1,67 klux 11 W/m
07.08.2014 06:55 16,8 C 16,5 C 21,9 C 91 % 1012,9 hPa 0,0 l/m 8,9 km/h (2 Bft) SW22.5 235 0 min 2,59 klux 18 W/m
07.08.2014 06:59 16,9 C 16,5 C 21,9 C 91 % 1012,9 hPa 0,0 l/m 8,7 km/h (2 Bft) SW 235 0 min 3,03 klux 21 W/m
07.08.2014 07:04 16,8 C 16,6 C 21,9 C 91 % 1012,9 hPa 0,0 l/m 9,4 km/h (2 Bft) SW22.5 230 0 min 2,94 klux 20 W/m
07.08.2014 07:09 16,9 C 16,8 C 21,8 C 91 % 1012,9 hPa 0,0 l/m 7,9 km/h (2 Bft) SW 230 0 min 3,35 klux 23 W/m
07.08.2014 07:15 17,0 C 16,7 C 21,9 C 91 % 1012,9 hPa 0,0 l/m 7,9 km/h (2 Bft) SW 230 0 min 2,68 klux 18 W/m
07.08.2014 07:20 17,0 C 16,7 C 21,9 C 91 % 1012,9 hPa 0,0 l/m 11,2 km/h (2 Bft) SW22.5 220 0 min 2,55 klux 17 W/m
07.08.2014 07:24 17,0 C 16,7 C 21,9 C 91 % 1012,9 hPa 0,0 l/m 8,3 km/h (2 Bft) SW22.5 225 0 min 2,62 klux 18 W/m
07.08.2014 07:29 17,1 C 16,9 C 21,9 C 91 % 1012,9 hPa 0,0 l/m 10,6 km/h (2 Bft) SW22.5 230 0 min 3,09 klux 21 W/m
07.08.2014 07:34 17,1 C 17,0 C 21,9 C 91 % 1012,9 hPa 0,0 l/m 9,7 km/h (2 Bft) SW22.5 225 0 min 5,42 klux 37 W/m
07.08.2014 07:39 17,1 C 17,2 C 21,8 C 91 % 1012,9 hPa 0,0 l/m 7,9 km/h (2 Bft) SW 220 0 min 6,36 klux 44 W/m
07.08.2014 07:45 17,2 C 17,9 C 21,9 C 91 % 1012,9 hPa 0,0 l/m 8,1 km/h (2 Bft) SW 225 0 min 7,87 klux 54 W/m
07.08.2014 07:50 17,2 C 18,1 C 21,9 C 91 % 1012,9 hPa 0,0 l/m 11,7 km/h (2 Bft) SW 225 0 min 11,6 klux 79 W/m
07.08.2014 07:54 17,3 C 18,9 C 21,8 C 90 % 1012,9 hPa 0,0 l/m 11,9 km/h (2 Bft) SW45 230 0 min 10,0 klux 68 W/m
07.08.2014 07:59 17,4 C 19,5 C 21,8 C 90 % 1012,9 hPa 0,0 l/m 8,8 km/h (2 Bft) SW22.5 230 0 min 13,9 klux 95 W/m
07.08.2014 08:04 17,6 C 20,1 C 21,8 C 90 % 1012,9 hPa 0,0 l/m 11,5 km/h (2 Bft) SW22.5 215 0 min 16,2 klux 111 W/m
07.08.2014 08:10 17,6 C 20,9 C 21,7 C 90 % 1012,9 hPa 0,0 l/m 14,8 km/h (3 Bft) SW22.5 220 0 min 15,3 klux 105 W/m
07.08.2014 08:15 17,8 C 21,2 C 21,7 C 89 % 1012,9 hPa 0,0 l/m 17,1 km/h (3 Bft) SW45 225 0 min 15,2 klux 104 W/m
07.08.2014 08:14 17,8 C 21,2 C 21,7 C 89 % 1012,9 hPa 0,0 l/m 17,1 km/h (3 Bft) SW45 225 0 min 15,2 klux 104 W/m
07.08.2014 08:20 17,6 C 21,3 C 21,6 C 87 % 1013,9 hPa 0,0 l/m 14,8 km/h (3 Bft) SW45 220 0 min 16,9 klux 116 W/m
07.08.2014 08:19 17,6 C 21,3 C 21,6 C 87 % 1013,9 hPa 0,0 l/m 14,8 km/h (3 Bft) SW45 220 0 min 16,9 klux 116 W/m
07.08.2014 08:24 17,6 C 21,2 C 21,5 C 87 % 1013,9 hPa 0,0 l/m 15,3 km/h (3 Bft) SW45 230 0 min 14,1 klux 96 W/m
07.08.2014 08:29 17,6 C 21,0 C 21,5 C 87 % 1013,9 hPa 0,0 l/m 11,8 km/h (2 Bft) SW45 230 0 min 14,1 klux 96 W/m
07.08.2014 08:35 17,9 C 19,9 C 21,4 C 86 % 1013,9 hPa 0,0 l/m 15,8 km/h (3 Bft) SW22.5 230 0 min 4,95 klux 34 W/m
07.08.2014 08:40 17,8 C 19,6 C 21,4 C 87 % 1013,9 hPa 0,0 l/m 13,1 km/h (3 Bft) SW45 225 0 min 6,14 klux 42 W/m
07.08.2014 08:45 17,8 C 19,3 C 21,3 C 87 % 1013,9 hPa 0,0 l/m 19,0 km/h (3 Bft) SW22.5 230 0 min 12,9 klux 88 W/m
07.08.2014 08:49 17,7 C 20,0 C 21,3 C 86 % 1013,9 hPa 0,0 l/m 18,1 km/h (3 Bft) W-SW22.5 245 0 min 18,4 klux 126 W/m
07.08.2014 08:54 17,7 C 21,5 C 21,2 C 86 % 1013,9 hPa 0,0 l/m 13,3 km/h (3 Bft) SW45 235 5 min 32,4 klux 222 W/m
07.08.2014 08:59 17,7 C 22,1 C 21,2 C 86 % 1013,9 hPa 0,0 l/m 16,5 km/h (3 Bft) W-SW22.5 240 0 min 32,5 klux 222 W/m
07.08.2014 09:05 18,0 C 22,6 C 21,1 C 85 % 1013,9 hPa 0,0 l/m 21,5 km/h (4 Bft) SW67.5 235 0 min 22,1 klux 151 W/m
07.08.2014 09:10 18,0 C 23,0 C 21,0 C 84 % 1013,9 hPa 0,0 l/m 17,6 km/h (3 Bft) SW45 225 0 min 22,1 klux 151 W/m
07.08.2014 09:14 18,0 C 23,2 C 20,9 C 84 % 1013,9 hPa 0,0 l/m 13,0 km/h (3 Bft) SW22.5 230 0 min 23,8 klux 163 W/m
07.08.2014 09:19 18,0 C 23,8 C 20,9 C 84 % 1013,9 hPa 0,0 l/m 13,2 km/h (3 Bft) SW45 220 0 min 22,9 klux 157 W/m
07.08.2014 09:24 18,1 C 24,2 C 20,8 C 83 % 1013,9 hPa 0,0 l/m 14,3 km/h (3 Bft) SW45 230 0 min 27,9 klux 191 W/m
07.08.2014 09:29 18,4 C 24,7 C 20,8 C 83 % 1013,9 hPa 0,0 l/m 17,6 km/h (3 Bft) W-SW45 240 0 min 25,4 klux 174 W/m
07.08.2014 09:35 18,4 C 25,1 C 20,7 C 83 % 1013,9 hPa 0,0 l/m 15,5 km/h (3 Bft) SW22.5 220 0 min 21,4 klux 146 W/m
07.08.2014 09:40 18,4 C 25,6 C 20,8 C 81 % 1013,9 hPa 0,0 l/m 9,6 km/h (2 Bft) S-SW22.5 205 0 min 19,4 klux 133 W/m
07.08.2014 09:45 18,6 C 24,6 C 20,8 C 83 % 1013,9 hPa 0,0 l/m 14,0 km/h (3 Bft) SW45 230 0 min 15,7 klux 107 W/m
07.08.2014 09:49 18,6 C 23,6 C 20,8 C 83 % 1013,9 hPa 0,0 l/m 16,7 km/h (3 Bft) W-SW22.5 245 0 min 14,4 klux 98 W/m
07.08.2014 09:54 18,4 C 22,9 C 20,7 C 83 % 1013,9 hPa 0,0 l/m 14,3 km/h (3 Bft) W-SW45 240 0 min 23,3 klux 159 W/m
07.08.2014 09:59 18,4 C 23,8 C 20,7 C 83 % 1013,9 hPa 0,0 l/m 15,0 km/h (3 Bft) W-SW22.5 240 0 min 23,7 klux 162 W/m
07.08.2014 10:05 18,6 C 24,1 C 20,7 C 82 % 1013,9 hPa 0,0 l/m 10,3 km/h (2 Bft) SW22.5 225 0 min 25,1 klux 172 W/m
07.08.2014 10:10 18,7 C 25,1 C 20,7 C 81 % 1013,9 hPa 0,0 l/m 16,0 km/h (3 Bft) SW22.5 215 0 min 23,4 klux 160 W/m
07.08.2014 10:14 18,8 C 26,0 C 20,7 C 81 % 1013,9 hPa 0,0 l/m 12,0 km/h (2 Bft) SW22.5 215 0 min 32,3 klux 221 W/m
07.08.2014 10:20 19,0 C 26,4 C 20,8 C 81 % 1013,8 hPa 0,0 l/m 8,9 km/h (2 Bft) SW22.5 230 0 min 29,4 klux 201 W/m
07.08.2014 10:25 19,2 C 26,8 C 20,8 C 81 % 1013,8 hPa 0,0 l/m 8,9 km/h (2 Bft) SW22.5 230 0 min 26,9 klux 184 W/m
07.08.2014 10:29 19,3 C 27,6 C 20,9 C 80 % 1013,8 hPa 0,0 l/m 14,0 km/h (3 Bft) SW22.5 215 0 min 37,0 klux 253 W/m
07.08.2014 10:34 19,3 C 28,6 C 20,8 C 80 % 1013,8 hPa 0,0 l/m 16,5 km/h (3 Bft) S-SW45 195 0 min 34,2 klux 234 W/m
07.08.2014 10:39 19,5 C 27,8 C 20,9 C 80 % 1013,8 hPa 0,0 l/m 16,5 km/h (3 Bft) S-SW45 195 0 min 29,1 klux 199 W/m
07.08.2014 10:44 19,5 C 28,5 C 20,9 C 78 % 1013,8 hPa 0,0 l/m 10,2 km/h (2 Bft) SW22.5 220 0 min 35,8 klux 245 W/m
07.08.2014 10:50 19,5 C 29,1 C 21,0 C 78 % 1013,8 hPa 0,0 l/m 13,1 km/h (3 Bft) SW45 230 0 min 35,1 klux 240 W/m
07.08.2014 10:55 19,7 C 30,0 C 21,0 C 78 % 1013,8 hPa 0,0 l/m 13,7 km/h (3 Bft) SW22.5 220 5 min 72,4 klux 495 W/m
07.08.2014 10:59 20,1 C 32,5 C 21,1 C 78 % 1013,8 hPa 0,0 l/m 16,7 km/h (3 Bft) SW22.5 225 0 min 41,7 klux 285 W/m
07.08.2014 11:04 20,3 C 31,3 C 21,1 C 76 % 1013,8 hPa 0,0 l/m 13,9 km/h (3 Bft) S-SW45 205 0 min 34,4 klux 235 W/m
07.08.2014 11:09 20,3 C 31,4 C 21,1 C 75 % 1013,8 hPa 0,0 l/m 13,2 km/h (3 Bft) SW22.5 220 0 min 36,1 klux 247 W/m
07.08.2014 11:15 20,5 C 30,5 C 21,1 C 76 % 1013,8 hPa 0,0 l/m 13,9 km/h (3 Bft) SW45 220 0 min 39,3 klux 269 W/m
07.08.2014 11:20 20,6 C 31,7 C 21,2 C 73 % 1013,8 hPa 0,0 l/m 8,3 km/h (2 Bft) SW45 220 0 min 36,6 klux 250 W/m
07.08.2014 11:24 20,6 C 32,2 C 21,2 C 73 % 1013,8 hPa 0,0 l/m 15,6 km/h (3 Bft) S-SW22.5 210 0 min 44,2 klux 302 W/m
07.08.2014 11:29 20,8 C 33,4 C 21,2 C 71 % 1013,8 hPa 0,0 l/m 10,3 km/h (2 Bft) S-SW22.5 195 0 min 36,6 klux 250 W/m
07.08.2014 11:34 21,1 C 34,5 C 21,3 C 73 % 1013,8 hPa 0,0 l/m 10,4 km/h (2 Bft) SW22.5 215 0 min 46,0 klux 315 W/m
07.08.2014 11:39 21,2 C 36,1 C 21,3 C 70 % 1013,8 hPa 0,0 l/m 10,0 km/h (2 Bft) S-SW45 210 0 min 42,4 klux 290 W/m
07.08.2014 11:44 21,2 C 36,9 C 21,3 C 70 % 1013,8 hPa 0,0 l/m 13,1 km/h (3 Bft) S-SW45 195 0 min 53,3 klux 365 W/m
07.08.2014 11:50 21,6 C 36,4 C 21,4 C 69 % 1013,8 hPa 0,0 l/m 12,7 km/h (3 Bft) S-SW45 210 0 min 49,7 klux 340 W/m
07.08.2014 11:55 21,7 C 37,9 C 21,4 C 69 % 1013,8 hPa 0,0 l/m 5,9 km/h (2 Bft) S-SW45 195 0 min 46,6 klux 319 W/m
07.08.2014 11:59 21,8 C 38,3 C 21,4 C 68 % 1013,8 hPa 0,0 l/m 10,7 km/h (2 Bft) S-SO45 165 4 min 76,3 klux 522 W/m
07.08.2014 12:04 22,0 C 41,9 C 21,4 C 69 % 1013,8 hPa 0,0 l/m 13,8 km/h (3 Bft) S45 185 5 min 74,2 klux 508 W/m
07.08.2014 12:09 22,4 C 44,6 C 21,5 C 68 % 1013,8 hPa 0,0 l/m 10,8 km/h (2 Bft) S22.5 170 5 min 83,5 klux 571 W/m
07.08.2014 12:15 22,8 C 46,1 C 21,5 C 69 % 1013,8 hPa 0,0 l/m 11,3 km/h (2 Bft) S-SW45 200 6 min 72,8 klux 498 W/m
07.08.2014 12:20 23,0 C 46,8 C 21,6 C 66 % 1013,8 hPa 0,0 l/m 12,0 km/h (2 Bft) S22.5 185 0 min 51,0 klux 349 W/m
07.08.2014 12:25 23,0 C 44,2 C 21,6 C 66 % 1013,8 hPa 0,0 l/m 11,8 km/h (2 Bft) SW22.5 215 0 min 51,1 klux 350 W/m
07.08.2014 12:29 23,0 C 45,8 C 21,7 C 66 % 1013,8 hPa 0,0 l/m 11,3 km/h (2 Bft) S45 180 4 min 71,1 klux 486 W/m
07.08.2014 12:34 23,0 C 44,2 C 21,7 C 65 % 1013,8 hPa 0,0 l/m 14,8 km/h (3 Bft) S-SW22.5 200 0 min 42,7 klux 292 W/m
07.08.2014 12:39 22,8 C 39,9 C 21,8 C 66 % 1013,8 hPa 0,0 l/m 1,2 km/h (1 Bft) S-SW22.5 210 0 min 42,7 klux 292 W/m
07.08.2014 12:44 22,8 C 38,7 C 21,8 C 66 % 1013,8 hPa 0,0 l/m 14,3 km/h (3 Bft) SW45 215 0 min 51,1 klux 350 W/m
07.08.2014 12:49 22,9 C 39,5 C 21,8 C 66 % 1013,8 hPa 0,0 l/m 14,2 km/h (3 Bft) SW45 215 0 min 59,7 klux 408 W/m
07.08.2014 12:55 22,9 C 38,7 C 21,8 C 66 % 1013,8 hPa 0,0 l/m 12,0 km/h (2 Bft) S-SW45 205 6 min 72,7 klux 497 W/m
07.08.2014 13:00 22,9 C 36,1 C 21,9 C 67 % 1013,8 hPa 0,0 l/m 14,3 km/h (3 Bft) SW22.5 225 0 min 39,2 klux 268 W/m
07.08.2014 13:04 22,6 C 35,1 C 21,9 C 67 % 1013,8 hPa 0,0 l/m 12,0 km/h (2 Bft) W-SW45 250 0 min 38,3 klux 262 W/m
07.08.2014 13:09 22,7 C 35,1 C 21,9 C 66 % 1013,8 hPa 0,0 l/m 11,8 km/h (2 Bft) S-SW22.5 205 0 min 36,6 klux 250 W/m
07.08.2014 13:14 22,8 C 34,5 C 21,9 C 67 % 1013,8 hPa 0,0 l/m 15,2 km/h (3 Bft) SW22.5 230 0 min 34,3 klux 235 W/m
07.08.2014 13:20 22,8 C 33,4 C 22,0 C 67 % 1013,8 hPa 0,0 l/m 12,5 km/h (2 Bft) SW22.5 220 0 min 34,2 klux 234 W/m
07.08.2014 13:25 22,6 C 33,6 C 22,0 C 67 % 1013,8 hPa 0,0 l/m 9,9 km/h (2 Bft) SW22.5 220 5 min 80,5 klux 551 W/m
07.08.2014 13:30 23,0 C 33,9 C 22,0 C 66 % 1013,8 hPa 0,0 l/m 10,8 km/h (2 Bft) W-SW45 240 0 min 42,6 klux 291 W/m
07.08.2014 13:34 23,1 C 36,7 C 22,1 C 66 % 1013,8 hPa 0,0 l/m 10,8 km/h (2 Bft) W-SW22.5 245 0 min 50,6 klux 346 W/m
07.08.2014 13:39 23,3 C 36,5 C 22,1 C 65 % 1013,8 hPa 0,0 l/m 10,3 km/h (2 Bft) SW22.5 215 5 min 80,1 klux 548 W/m
07.08.2014 13:44 23,8 C 42,8 C 22,1 C 65 % 1013,8 hPa 0,0 l/m 9,9 km/h (2 Bft) SW45 230 5 min 81,8 klux 560 W/m
07.08.2014 13:49 24,0 C 42,1 C 22,1 C 64 % 1013,8 hPa 0,0 l/m 7,6 km/h (2 Bft) SW45 230 0 min 33,2 klux 227 W/m
07.08.2014 13:54 23,8 C 37,0 C 22,2 C 61 % 1013,8 hPa 0,0 l/m 7,9 km/h (2 Bft) SW22.5 215 0 min 34,9 klux 239 W/m
07.08.2014 14:00 23,2 C 35,9 C 22,2 C 66 % 1013,8 hPa 0,0 l/m 14,8 km/h (3 Bft) W45 275 6 min 80,0 klux 547 W/m
07.08.2014 14:04 23,2 C 38,2 C 22,2 C 66 % 1013,8 hPa 0,0 l/m 11,8 km/h (2 Bft) W22.5 270 0 min 31,0 klux 212 W/m
07.08.2014 14:09 23,1 C 35,8 C 22,3 C 64 % 1013,8 hPa 0,0 l/m 13,1 km/h (3 Bft) W22.5 260 0 min 33,7 klux 231 W/m
07.08.2014 14:14 23,0 C 34,5 C 22,3 C 65 % 1013,8 hPa 0,0 l/m 13,1 km/h (3 Bft) W22.5 260 5 min 80,8 klux 553 W/m
07.08.2014 14:19 23,6 C 38,6 C 22,3 C 66 % 1013,8 hPa 0,0 l/m 11,4 km/h (2 Bft) W-SW22.5 250 5 min 80,2 klux 549 W/m
07.08.2014 14:24 23,6 C 42,5 C 22,4 C 66 % 1013,8 hPa 0,0 l/m 15,8 km/h (3 Bft) SW67.5 230 5 min 76,0 klux 520 W/m
07.08.2014 14:30 23,6 C 39,4 C 22,5 C 66 % 1013,8 hPa 0,0 l/m 15,8 km/h (3 Bft) W-SW22.5 250 0 min 21,7 klux 148 W/m
07.08.2014 14:35 23,2 C 33,9 C 22,5 C 65 % 1013,8 hPa 0,0 l/m 15,1 km/h (3 Bft) W22.5 270 5 min 74,6 klux 510 W/m
07.08.2014 14:39 23,2 C 38,6 C 22,6 C 65 % 1013,8 hPa 0,0 l/m 13,8 km/h (3 Bft) W22.5 265 4 min 80,3 klux 549 W/m
07.08.2014 14:44 24,3 C 45,0 C 22,7 C 64 % 1013,8 hPa 0,0 l/m 10,5 km/h (2 Bft) W22.5 265 5 min 79,2 klux 542 W/m
07.08.2014 14:49 24,2 C 45,9 C 22,8 C 60 % 1013,8 hPa 0,0 l/m 10,4 km/h (2 Bft) W45 260 5 min 83,2 klux 569 W/m
07.08.2014 14:54 24,4 C 49,5 C 22,8 C 64 % 1013,8 hPa 0,0 l/m 13,5 km/h (3 Bft) W67.5 270 5 min 80,9 klux 553 W/m
07.08.2014 14:59 24,6 C 49,4 C 22,9 C 60 % 1013,8 hPa 0,0 l/m 13,5 km/h (3 Bft) W67.5 270 5 min 79,5 klux 544 W/m
07.08.2014 15:05 24,7 C 49,7 C 23,0 C 59 % 1013,8 hPa 0,0 l/m 13,6 km/h (3 Bft) W-SW45 240 6 min 80,2 klux 549 W/m
07.08.2014 15:09 24,7 C 48,8 C 23,2 C 59 % 1013,8 hPa 0,0 l/m 11,8 km/h (2 Bft) W45 280 4 min 75,9 klux 519 W/m
07.08.2014 15:14 24,4 C 48,8 C 23,2 C 60 % 1013,8 hPa 0,0 l/m 14,5 km/h (3 Bft) NW22.5 310 0 min 30,0 klux 205 W/m
07.08.2014 15:19 24,4 C 43,3 C 23,3 C 59 % 1013,8 hPa 0,0 l/m 8,6 km/h (2 Bft) N-NW22.5 330 5 min 72,6 klux 497 W/m
07.08.2014 15:24 24,3 C 39,1 C 23,3 C 58 % 1013,8 hPa 0,0 l/m 10,5 km/h (2 Bft) N-NW22.5 330 0 min 23,0 klux 157 W/m
07.08.2014 15:29 24,1 C 34,0 C 23,2 C 62 % 1013,8 hPa 0,0 l/m 12,3 km/h (2 Bft) W-NW45 285 0 min 24,8 klux 170 W/m
07.08.2014 15:35 24,2 C 39,6 C 23,3 C 59 % 1013,8 hPa 0,0 l/m 10,1 km/h (2 Bft) W67.5 280 6 min 76,2 klux 521 W/m
07.08.2014 15:40 24,7 C 39,6 C 23,4 C 61 % 1013,8 hPa 0,0 l/m 17,6 km/h (3 Bft) W22.5 260 5 min 77,3 klux 529 W/m
07.08.2014 15:45 24,7 C 38,2 C 23,5 C 61 % 1013,8 hPa 0,0 l/m 12,4 km/h (2 Bft) W-SW45 255 0 min 22,0 klux 150 W/m
07.08.2014 15:49 24,1 C 33,5 C 23,6 C 60 % 1013,8 hPa 0,0 l/m 11,1 km/h (2 Bft) NW22.5 310 0 min 51,0 klux 349 W/m
07.08.2014 15:54 23,9 C 32,1 C 23,6 C 61 % 1013,8 hPa 0,0 l/m 12,5 km/h (2 Bft) W-NW22.5 290 0 min 21,6 klux 148 W/m
07.08.2014 15:59 23,7 C 29,5 C 23,6 C 61 % 1013,8 hPa 0,0 l/m 12,1 km/h (2 Bft) NW22.5 305 0 min 23,9 klux 163 W/m
07.08.2014 16:05 23,7 C 30,8 C 23,6 C 62 % 1013,8 hPa 0,0 l/m 12,9 km/h (3 Bft) NW22.5 315 6 min 66,2 klux 453 W/m
07.08.2014 16:10 24,3 C 33,9 C 23,5 C 61 % 1013,8 hPa 0,0 l/m 9,6 km/h (2 Bft) NW45 310 5 min 70,1 klux 479 W/m
07.08.2014 16:14 24,6 C 38,5 C 23,5 C 60 % 1013,8 hPa 0,0 l/m 13,3 km/h (3 Bft) W45 275 4 min 63,9 klux 437 W/m
07.08.2014 16:19 24,6 C 36,0 C 23,6 C 58 % 1013,8 hPa 0,0 l/m 17,5 km/h (3 Bft) W-NW22.5 300 0 min 24,4 klux 167 W/m
07.08.2014 16:24 24,2 C 31,1 C 23,6 C 59 % 1013,8 hPa 0,0 l/m 14,9 km/h (3 Bft) W-NW22.5 295 0 min 17,4 klux 119 W/m
07.08.2014 16:29 23,8 C 29,9 C 23,6 C 61 % 1013,8 hPa 0,0 l/m 14,9 km/h (3 Bft) W-NW22.5 295 0 min 21,9 klux 150 W/m
07.08.2014 16:34 23,9 C 31,7 C 23,6 C 61 % 1013,8 hPa 0,0 l/m 9,7 km/h (2 Bft) W22.5 265 5 min 66,3 klux 453 W/m
07.08.2014 16:40 24,5 C 37,5 C 23,7 C 60 % 1013,8 hPa 0,0 l/m 14,1 km/h (3 Bft) W45 265 6 min 65,8 klux 450 W/m
07.08.2014 16:45 25,1 C 38,8 C 23,7 C 55 % 1013,7 hPa 0,0 l/m 18,2 km/h (3 Bft) W45 275 5 min 64,3 klux 440 W/m
07.08.2014 16:50 25,3 C 40,0 C 23,8 C 56 % 1013,7 hPa 0,0 l/m 16,8 km/h (3 Bft) W-NW45 290 5 min 61,9 klux 423 W/m
07.08.2014 16:54 25,1 C 40,0 C 24,0 C 57 % 1013,7 hPa 0,0 l/m 13,9 km/h (3 Bft) W-NW45 300 4 min 61,7 klux 422 W/m
07.08.2014 16:59 25,2 C 40,1 C 24,0 C 53 % 1013,7 hPa 0,0 l/m 13,6 km/h (3 Bft) N-NW45 330 5 min 50,5 klux 345 W/m
07.08.2014 17:04 25,1 C 39,5 C 24,0 C 55 % 1013,7 hPa 0,0 l/m 13,6 km/h (3 Bft) W-NW22.5 290 5 min 55,9 klux 382 W/m
07.08.2014 17:10 24,9 C 37,1 C 24,0 C 54 % 1013,8 hPa 0,0 l/m 9,1 km/h (2 Bft) NW45 310 6 min 55,5 klux 380 W/m
07.08.2014 17:15 24,8 C 36,1 C 24,0 C 51 % 1013,8 hPa 0,0 l/m 14,8 km/h (3 Bft) NW22.5 320 5 min 50,5 klux 345 W/m
07.08.2014 17:19 24,8 C 36,1 C 24,0 C 54 % 1013,8 hPa 0,0 l/m 11,5 km/h (2 Bft) NW45 305 4 min 51,2 klux 350 W/m
07.08.2014 17:24 24,6 C 33,3 C 24,0 C 57 % 1013,8 hPa 0,0 l/m 15,1 km/h (3 Bft) NW22.5 315 5 min 50,7 klux 347 W/m
07.08.2014 17:29 24,8 C 32,5 C 24,0 C 56 % 1013,8 hPa 0,0 l/m 11,0 km/h (2 Bft) W-NW22.5 295 0 min 31,2 klux 213 W/m
07.08.2014 17:34 24,8 C 32,3 C 24,0 C 56 % 1013,8 hPa 0,0 l/m 17,6 km/h (3 Bft) NW22.5 305 5 min 50,5 klux 345 W/m
07.08.2014 17:39 24,8 C 34,2 C 24,0 C 57 % 1013,8 hPa 0,0 l/m 15,1 km/h (3 Bft) W-NW45 295 5 min 50,2 klux 343 W/m
07.08.2014 17:45 24,9 C 34,8 C 23,9 C 55 % 1013,8 hPa 0,0 l/m 16,5 km/h (3 Bft) NW22.5 305 6 min 47,5 klux 325 W/m
07.08.2014 17:50 25,0 C 34,5 C 23,9 C 57 % 1013,8 hPa 0,0 l/m 12,0 km/h (2 Bft) NW45 305 5 min 45,4 klux 311 W/m
07.08.2014 17:55 25,0 C 34,0 C 23,9 C 57 % 1013,8 hPa 0,0 l/m 16,2 km/h (3 Bft) W-NW22.5 285 5 min 45,4 klux 311 W/m
07.08.2014 17:59 24,9 C 33,9 C 23,9 C 56 % 1013,8 hPa 0,0 l/m 9,7 km/h (2 Bft) W-NW45 285 0 min 25,7 klux 176 W/m
07.08.2014 18:04 25,1 C 33,7 C 23,9 C 58 % 1013,7 hPa 0,0 l/m 7,1 km/h (2 Bft) N-NW45 330 5 min 44,2 klux 302 W/m
07.08.2014 18:09 25,0 C 33,4 C 23,9 C 55 % 1013,8 hPa 0,0 l/m 8,9 km/h (2 Bft) W-NW22.5 290 0 min 23,1 klux 158 W/m
07.08.2014 18:15 25,0 C 32,4 C 23,9 C 57 % 1013,8 hPa 0,0 l/m 10,1 km/h (2 Bft) NW67.5 310 6 min 41,1 klux 281 W/m
07.08.2014 18:20 25,2 C 33,7 C 23,9 C 54 % 1013,7 hPa 0,0 l/m 5,6 km/h (2 Bft) W-NW45 290 5 min 40,9 klux 280 W/m
07.08.2014 18:25 25,2 C 34,4 C 23,9 C 56 % 1013,7 hPa 0,0 l/m 6,9 km/h (2 Bft) W22.5 265 5 min 39,8 klux 272 W/m
07.08.2014 18:29 25,4 C 34,6 C 23,8 C 52 % 1013,7 hPa 0,0 l/m 16,6 km/h (3 Bft) N45 5 4 min 37,5 klux 257 W/m
07.08.2014 18:34 25,5 C 34,3 C 23,8 C 52 % 1013,7 hPa 0,0 l/m 9,3 km/h (2 Bft) N45 350 5 min 35,4 klux 242 W/m
07.08.2014 18:39 25,5 C 34,0 C 23,8 C 55 % 1013,7 hPa 0,0 l/m 0,7 km/h (0 Bft) N 355 5 min 32,5 klux 222 W/m
07.08.2014 18:44 25,4 C 32,8 C 23,8 C 54 % 1013,7 hPa 0,0 l/m 0,6 km/h (0 Bft) W-NW67.5 295 5 min 30,0 klux 205 W/m
07.08.2014 18:50 25,2 C 31,5 C 23,8 C 53 % 1013,7 hPa 0,0 l/m 10,1 km/h (2 Bft) W-NW45 295 6 min 29,3 klux 200 W/m
07.08.2014 18:55 24,9 C 30,6 C 23,8 C 53 % 1013,8 hPa 0,0 l/m 9,6 km/h (2 Bft) W22.5 265 5 min 27,3 klux 187 W/m
07.08.2014 19:00 25,0 C 30,7 C 23,7 C 54 % 1013,8 hPa 0,0 l/m 1,6 km/h (1 Bft) NW45 320 5 min 26,9 klux 184 W/m
07.08.2014 19:04 25,0 C 30,6 C 23,7 C 53 % 1013,8 hPa 0,0 l/m 7,0 km/h (2 Bft) N-NW22.5 330 4 min 24,6 klux 168 W/m
07.08.2014 19:09 25,0 C 30,0 C 23,7 C 55 % 1013,8 hPa 0,0 l/m 0,0 km/h (0 Bft) N22.5 355 5 min 24,0 klux 164 W/m
07.08.2014 19:14 25,1 C 29,6 C 23,7 C 56 % 1013,7 hPa 0,0 l/m 0,6 km/h (0 Bft) N45 360 5 min 23,0 klux 157 W/m
07.08.2014 19:20 25,2 C 28,8 C 23,7 C 54 % 1013,7 hPa 0,0 l/m 2,4 km/h (1 Bft) N22.5 350 0 min 20,3 klux 139 W/m
07.08.2014 19:25 25,1 C 28,5 C 23,7 C 54 % 1013,7 hPa 0,0 l/m 1,8 km/h (1 Bft) NO22.5 35 5 min 20,1 klux 137 W/m
07.08.2014 19:30 25,0 C 28,0 C 23,6 C 52 % 1013,8 hPa 0,0 l/m 11,5 km/h (2 Bft) N-NO22.5 15 0 min 18,7 klux 128 W/m
07.08.2014 19:34 25,0 C 27,2 C 23,6 C 52 % 1013,8 hPa 0,0 l/m 8,2 km/h (2 Bft) N-NO67.5 30 0 min 17,7 klux 121 W/m
07.08.2014 19:39 24,9 C 26,4 C 23,6 C 54 % 1013,8 hPa 0,0 l/m 11,9 km/h (2 Bft) O-NO67.5 65 0 min 16,4 klux 112 W/m
07.08.2014 19:44 24,9 C 25,9 C 23,6 C 54 % 1013,8 hPa 0,0 l/m 13,1 km/h (3 Bft) N-NO45 15 0 min 14,7 klux 101 W/m
07.08.2014 19:49 24,9 C 25,6 C 23,6 C 54 % 1013,8 hPa 0,0 l/m 11,2 km/h (2 Bft) N-NO22.5 20 0 min 12,8 klux 88 W/m
07.08.2014 19:55 24,6 C 25,2 C 23,6 C 58 % 1013,8 hPa 0,0 l/m 17,8 km/h (3 Bft) N-NO22.5 25 0 min 12,4 klux 85 W/m
07.08.2014 20:00 24,3 C 24,7 C 23,6 C 58 % 1013,8 hPa 0,0 l/m 17,3 km/h (3 Bft) N-NO45 15 0 min 12,4 klux 85 W/m
07.08.2014 20:04 23,9 C 24,3 C 23,5 C 59 % 1013,8 hPa 0,0 l/m 15,3 km/h (3 Bft) N-NO45 25 0 min 9,3 klux 64 W/m
07.08.2014 20:09 23,6 C 23,6 C 23,5 C 60 % 1013,8 hPa 0,0 l/m 15,1 km/h (3 Bft) N-NO45 15 0 min 8,16 klux 56 W/m
07.08.2014 20:14 23,5 C 23,3 C 23,5 C 61 % 1013,8 hPa 0,0 l/m 9,8 km/h (2 Bft) N45 10 0 min 8,16 klux 56 W/m
07.08.2014 20:19 23,3 C 22,7 C 23,5 C 61 % 1013,8 hPa 0,0 l/m 11,1 km/h (2 Bft) N-NO22.5 15 0 min 5,34 klux 37 W/m
07.08.2014 20:25 23,2 C 22,1 C 23,5 C 61 % 1013,8 hPa 0,0 l/m 7,8 km/h (2 Bft) N22.5 5 0 min 3,35 klux 23 W/m
07.08.2014 20:30 23,2 C 21,5 C 23,5 C 61 % 1013,8 hPa 0,0 l/m 0,7 km/h (0 Bft) N-NO22.5 15 0 min 3,35 klux 23 W/m
07.08.2014 20:34 22,9 C 20,9 C 23,5 C 62 % 1013,8 hPa 0,0 l/m 10,8 km/h (2 Bft) N-NO22.5 25 0 min 2,62 klux 18 W/m
07.08.2014 20:39 22,8 C 20,6 C 23,5 C 62 % 1013,8 hPa 0,0 l/m 6,7 km/h (2 Bft) N67.5 360 0 min 2,06 klux 14 W/m
07.08.2014 20:44 22,5 C 20,2 C 23,4 C 63 % 1013,8 hPa 0,0 l/m 3,5 km/h (1 Bft) N-NO22.5 20 0 min 1,64 klux 11 W/m
07.08.2014 20:49 22,4 C 19,8 C 23,4 C 63 % 1014,8 hPa 0,0 l/m 0,1 km/h (0 Bft) N 360 0 min 1,31 klux 9 W/m
07.08.2014 20:54 22,2 C 19,5 C 23,4 C 63 % 1014,8 hPa 0,0 l/m 0,6 km/h (0 Bft) N22.5 5 0 min 1,03 klux 7 W/m
07.08.2014 21:00 22,0 C 19,2 C 23,4 C 64 % 1014,8 hPa 0,0 l/m 0,9 km/h (0 Bft) N-NO 15 0 min 785 lux 5 W/m
07.08.2014 21:04 21,8 C 19,0 C 23,4 C 65 % 1014,8 hPa 0,0 l/m 0,6 km/h (0 Bft) N22.5 10 0 min 564 lux 4 W/m
07.08.2014 21:09 21,7 C 18,8 C 23,4 C 64 % 1014,8 hPa 0,0 l/m 6,5 km/h (2 Bft) N-NO 20 0 min 370 lux 0 W/m
07.08.2014 21:14 21,5 C 18,5 C 23,4 C 65 % 1014,8 hPa 0,0 l/m 4,3 km/h (1 Bft) N-NO22.5 20 0 min 251 lux 0 W/m
07.08.2014 21:19 21,2 C 18,2 C 23,4 C 66 % 1014,8 hPa 0,0 l/m 6,4 km/h (2 Bft) NO22.5 35 0 min 116 lux 0 W/m
07.08.2014 21:25 21,2 C 18,2 C 23,3 C 66 % 1014,8 hPa 0,0 l/m 6,8 km/h (2 Bft) N45 5 0 min 116 lux 0 W/m
07.08.2014 21:30 21,2 C 18,2 C 23,3 C 66 % 1014,8 hPa 0,0 l/m 7,0 km/h (2 Bft) N-NO22.5 20 0 min 64 lux 0 W/m
07.08.2014 21:35 21,3 C 18,1 C 23,3 C 66 % 1014,8 hPa 0,0 l/m 6,3 km/h (2 Bft) N22.5 10 0 min 30 lux 0 W/m
07.08.2014 21:39 21,2 C 18,0 C 23,2 C 67 % 1014,8 hPa 0,0 l/m 5,2 km/h (1 Bft) N22.5 10 0 min 12 lux 0 W/m
07.08.2014 21:44 21,2 C 17,9 C 23,2 C 67 % 1014,8 hPa 0,0 l/m 7,5 km/h (2 Bft) N-NO22.5 15 0 min 2 lux 0 W/m
07.08.2014 21:49 21,1 C 18,0 C 23,2 C 67 % 1014,8 hPa 0,0 l/m 8,2 km/h (2 Bft) N-NO22.5 20 0 min 0 lux 0 W/m
07.08.2014 21:54 21,0 C 17,9 C 23,2 C 68 % 1014,8 hPa 0,0 l/m 8,4 km/h (2 Bft) N22.5 10 0 min 0 lux 0 W/m
07.08.2014 22:00 20,9 C 17,9 C 23,2 C 69 % 1014,8 hPa 0,0 l/m 9,2 km/h (2 Bft) N-NO22.5 15 0 min 0 lux 0 W/m
07.08.2014 22:04 20,9 C 17,8 C 23,2 C 70 % 1014,8 hPa 0,0 l/m 9,4 km/h (2 Bft) N22.5 10 0 min 0 lux 0 W/m
07.08.2014 22:09 20,8 C 17,8 C 23,2 C 70 % 1014,8 hPa 0,0 l/m 7,0 km/h (2 Bft) N-NO22.5 15 0 min 0 lux 0 W/m
07.08.2014 22:14 20,7 C 17,7 C 23,2 C 70 % 1014,8 hPa 0,0 l/m 5,0 km/h (1 Bft) N-NO22.5 15 0 min 0 lux 0 W/m
07.08.2014 22:19 20,5 C 17,6 C 23,2 C 71 % 1014,8 hPa 0,0 l/m 0,8 km/h (0 Bft) N 360 0 min 0 lux 0 W/m
07.08.2014 22:25 20,3 C 17,3 C 23,1 C 71 % 1014,8 hPa 0,0 l/m 0,8 km/h (0 Bft) N 10 0 min 0 lux 0 W/m
07.08.2014 22:30 20,3 C 17,2 C 23,2 C 71 % 1014,8 hPa 0,0 l/m 4,5 km/h (1 Bft) N-NO22.5 15 0 min 0 lux 0 W/m
07.08.2014 22:35 20,2 C 17,1 C 23,2 C 73 % 1014,8 hPa 0,0 l/m 4,3 km/h (1 Bft) N-NO22.5 15 0 min 0 lux 0 W/m
07.08.2014 22:39 20,1 C 17,1 C 23,1 C 73 % 1014,8 hPa 0,0 l/m 6,5 km/h (2 Bft) N-NO22.5 20 0 min 0 lux 0 W/m
07.08.2014 22:44 20,1 C 16,9 C 23,1 C 74 % 1014,8 hPa 0,0 l/m 8,3 km/h (2 Bft) N22.5 10 0 min 0 lux 0 W/m
07.08.2014 22:49 20,0 C 16,8 C 23,1 C 74 % 1014,8 hPa 0,0 l/m 6,0 km/h (2 Bft) N-NO 15 0 min 0 lux 0 W/m
07.08.2014 22:54 20,0 C 16,6 C 23,1 C 73 % 1014,8 hPa 0,0 l/m 4,9 km/h (1 Bft) N-NO 25 0 min 0 lux 0 W/m
07.08.2014 23:00 20,0 C 16,2 C 23,1 C 73 % 1014,8 hPa 0,0 l/m 0,0 km/h (0 Bft) N-NO 20 0 min 0 lux 0 W/m
07.08.2014 23:04 19,0 C 16,1 C 23,1 C 75 % 1014,9 hPa 0,0 l/m 0,1 km/h (0 Bft) N-NO 20 0 min 0 lux 0 W/m
07.08.2014 23:09 18,9 C 15,9 C 23,1 C 76 % 1014,9 hPa 0,0 l/m 0,0 km/h (0 Bft) N-NO 20 0 min 0 lux 0 W/m
07.08.2014 23:14 18,7 C 15,8 C 23,0 C 76 % 1014,9 hPa 0,0 l/m 0,0 km/h (0 Bft) N-NO 20 0 min 0 lux 0 W/m
07.08.2014 23:19 18,5 C 15,7 C 23,1 C 77 % 1014,9 hPa 0,0 l/m 0,0 km/h (0 Bft) N-NO 20 0 min 0 lux 0 W/m
07.08.2014 23:25 18,4 C 15,6 C 23,0 C 77 % 1014,9 hPa 0,0 l/m 0,0 km/h (0 Bft) N-NO 20 0 min 0 lux 0 W/m
07.08.2014 23:30 18,4 C 15,9 C 23,0 C 79 % 1014,9 hPa 0,0 l/m 0,0 km/h (0 Bft) N-NO 20 0 min 0 lux 0 W/m
07.08.2014 23:35 18,5 C 15,9 C 23,0 C 78 % 1014,9 hPa 0,0 l/m 0,0 km/h (0 Bft) N-NO 20 0 min 0 lux 0 W/m
07.08.2014 23:39 18,4 C 15,9 C 23,0 C 78 % 1014,9 hPa 0,0 l/m 0,0 km/h (0 Bft) N-NO 20 0 min 0 lux 0 W/m
07.08.2014 23:44 18,4 C 15,7 C 23,0 C 78 % 1014,9 hPa 0,0 l/m 0,0 km/h (0 Bft) N-NO 20 0 min 0 lux 0 W/m
07.08.2014 23:49 18,4 C 15,7 C 23,0 C 79 % 1014,9 hPa 0,0 l/m 0,0 km/h (0 Bft) N-NO 20 0 min 0 lux 0 W/m
07.08.2014 23:54 18,4 C 15,7 C 23,0 C 79 % 1014,9 hPa 0,0 l/m 0,1 km/h (0 Bft) N-NO 20 0 min 0 lux 0 W/m
_ Min-Zeit 02:05 05:59 09:35 17:15 08:15 - 00:04 - - - - -
Minimum _ 16,2 C 15,3 C 20,7 C 51 % 1012,9 hPa - 0,0 km/h (0 Bft) - - - - -
_ Max-Zeit 18:34 15:05 16:54 06:44 23:25 01:49 09:05 - - 12:15 12:09 12:09
Maximum _ 25,5 C 49,7 C 24,0 C 91 % 1014,9 hPa 0,4 l/m 21,5 km/h
SW (4 Bft)
- - 6 min 83,5 klux 571 W/m
Durchschnitt _ 20,3 C 25,0 C 22,5 C 75 % 1013,7 hPa #0,4 l/m 9,6 km/h (2 Bft) SW - #5:02 h 21,3 klux 233 W/m